Skip Page Navigation
NASA JPL Caltech
NASA Logo - Jet Propulsion Laboratory + View the NASA Portal
+ Center for Near-Earth Object Studies
JPL Home Earth Solar System Stars & Galaxies Technology
JPL Solar System Dynamics
BODIES ORBITS EPHEMERIDES TOOLS PHYSICAL DATA DISCOVERY FAQ SITE MAP

Significant website upgrade scheduled for September 27. More details available here.

JPL Small-Body Database Browser
Search: [ help ]  
79078 (4188 T-3)
Classification: Main-belt Asteroid          SPK-ID: 2079078
Ephemeris | Orbit Diagram | Orbital Elements | Mission Design | Physical Parameters | Discovery Circumstances ]

[ show orbit diagram ]
Orbital Elements at Epoch 2459396.5 (2021-Jul-01.0) TDB
Reference: JPL 26 (heliocentric ecliptic J2000)
 Element Value Uncertainty (1-sigma)   Units 
e .1994814201212241 3.1916e-08  
a 2.240498699410514 8.277e-09 au
q 1.793560837072349 7.4312e-08 au
i 4.666031124867479 3.6411e-06 deg
node 104.976561915863 4.5465e-05 deg
peri 235.519902458931 4.6502e-05 deg
M 37.44750785021913 1.0437e-05 deg
tp 2459269.080501686562
(2021-Feb-23.58050169)
3.5246e-05 TDB
period 1224.941845965043
3.35
6.7879e-06
1.858e-08
d
yr
n .2938915028381466 1.6286e-09 deg/d
Q 2.687436561748678 9.9282e-09 au
  Orbit Determination Parameters
   # obs. used (total)      869  
   data-arc span      15625 days (42.78 yr)  
   first obs. used      1977-10-07  
   last obs. used      2020-07-18  
   planetary ephem.      DE441  
   SB-pert. ephem.      SB441-N16  
   condition code      0  
   norm. resid. RMS      .56105  
   source      ORB  
   producer      Otto Matic  
   solution date      2021-Jul-08 23:07:42  

Additional Information
 Earth MOID = .78895 au 
 Jupiter MOID = 2.70673 au 
 T_jup = 3.604 
[ show covariance matrix ]

Ephemeris | Orbit Diagram | Orbital Elements | Mission Design | Physical Parameters | Discovery Circumstances ]

Physical Parameter Table
Parameter Symbol Value Units Sigma Reference Notes
absolute magnitude H 16.29   n/a E2021B10  
diameter diameter 3.282 km 0.222 urn:nasa:pds:neowise_diameters_albedos::2.0[mainbelt] (http://adsabs.harvard.edu/abs/2012ApJ...759L...8M)  
geometric albedo albedo 0.027   0.007 urn:nasa:pds:neowise_diameters_albedos::2.0[mainbelt] (http://adsabs.harvard.edu/abs/2011ApJ...741...68M)  

79078 (4188 T-3)          Discovered 1977-Oct-16 by van Houten, C. J., van Houten-Groeneveld, I., Gehrels, T. at Palomar
Reference: 20040415/Numbers.arcLast Updated: 2004-04-19

Alternate Designations
 4188 T-3 = 2002 AU35 
Ephemeris | Orbit Diagram | Orbital Elements | Mission Design | Physical Parameters | Discovery Circumstances ]
ABOUT SSD CREDITS/AWARDS PRIVACY/COPYRIGHT GLOSSARY LINKS
FirstGov 2021-Sep-21 21:37 UT
(server date/time)  
NASA Home Page
Site Manager:   Ryan S. Park
Webmaster  Alan B. Chamberlin